Temperature
20 20 20 20 20 19 19 19 19 19 19 19 18 18 18 18 18 17 17 17 17 17 17 17 16 16 16 16 16 16 16 16 15 15 15 15 15 15 15 15 14 14 14
20 20 20 20 20 19 19 19 19 19 19 18 18 18 18 18 17 17 17 17 17 16 16 16 16 16 16 16 16 16 15 15 15 15 15 15 14 14 14 14 14 14 14
20 20 20 19 19 19 19 19 19 19 19 18 18 18 18 17 17 17 17 17 16 16 16 16 16 16 16 16 15 15 15 15 15 15 15 14 14 14 14 14 13 13 13
20 20 20 19 19 19 19 19 19 19 18 18 18 18 17 17 17 17 17 16 16 16 16 16 16 16 16 15 15 15 15 15 14 14 14 14 13 13 13 13 13 13 13
20 20 20 19 19 19 19 19 18 18 18 18 18 17 17 17 17 17 16 16 16 16 16 16 15 15 15 15 15 15 15 14 14 14 14 13 13 13 13 13 12 12 12
20 20 19 19 19 19 18 18 18 18 18 18 17 17 17 17 17 17 16 16 16 16 16 15 15 15 15 15 14 14 14 14 14 14 13 13 13 13 13 12 12 12 12
20 19 19 19 19 19 18 18 18 18 17 17 17 17 17 17 17 17 16 16 16 16 15 15 14 14 14 14 14 14 14 14 13 13 13 13 13 13 12 12 12 12 12
19 19 19 19 18 18 18 18 17 17 17 17 17 17 17 17 16 16 16 16 16 15 15 15 14 14 14 14 14 14 13 13 13 13 13 13 13 13 12 12 12 12 12
19 19 18 18 18 18 18 17 17 17 17 17 17 17 17 17 16 16 16 15 15 15 14 14 14 14 14 14 13 13 13 13 13 13 13 13 13 12 12 12 12 11 11
18 18 18 18 18 18 18 17 17 17 17 16 16 16 16 16 16 16 16 15 15 14 14 14 14 14 14 14 13 13 13 13 13 13 13 12 12 12 12 12 11 11 11
18 18 18 18 17 17 17 17 17 17 16 16 16 16 16 16 16 16 15 15 14 14 14 14 14 14 13 13 13 13 13 12 12 12 12 12 12 12 12 12 11 11 11
18 17 17 17 17 17 17 17 16 16 16 16 15 15 15 15 15 15 15 14 14 14 14 13 13 13 13 13 13 12 12 12 12 12 12 12 12 12 11 11 11 11 11
17 17 17 17 16 16 16 16 16 16 15 15 15 15 15 15 15 15 14 14 14 14 13 13 13 13 13 13 12 12 12 12 11 11 11 11 11 11 11 11 11 11 11
17 17 16 16 16 16 16 16 15 15 15 15 15 15 14 14 14 14 14 14 13 13 13 13 13 12 12 12 12 12 11 11 11 11 11 11 11 11 11 11 11 10 10
16 16 16 16 16 16 15 15 15 15 15 15 15 14 14 14 14 14 14 13 13 13 13 12 12 12 12 11 11 11 11 11 11 11 11 10 10 10 10 10 10 10 10
16 15 15 15 15 15 15 15 15 15 15 14 14 14 14 14 14 13 13 13 13 13 12 12 11 11 11 11 11 11 11 10 10 10 10 10 10 10 10 10 10 10 10
15 15 15 15 15 14 14 14 14 14 14 14 14 14 14 13 13 13 13 13 12 12 11 11 11 11 10 10 10 10 10 10 10 10 10 10 10 10 9 9 9 9 9
15 15 15 14 14 14 14 14 14 13 13 13 13 13 13 13 13 13 12 12 11 11 11 11 10 10 10 10 10 10 10 10 10 9 9 9 9 9 9 9 9 9 9
14 14 14 14 14 14 13 13 13 13 13 13 12 12 12 12 12 12 12 11 11 11 10 10 10 10 10 10 10 10 9 9 9 9 9 9 9 9 8 8 8 8 8
14 14 14 14 13 13 13 13 13 12 12 12 12 12 12 11 11 11 11 11 10 10 10 10 10 9 9 9 9 9 9 9 9 9 8 8 8 8 8 8 8 8 8
13 13 13 13 13 13 13 13 12 12 12 12 12 11 11 11 11 10 10 10 10 10 10 10 9 9 9 9 9 9 9 8 8 8 8 8 8 8 8 8 8 8 8
13 13 13 13 13 13 13 12 12 12 12 11 11 11 11 11 10 10 10 10 10 9 9 9 9 9 8 8 8 8 8 8 8 8 8 8 7 7 7 7 7 7 7
12 13 12 12 12 12 12 12 12 12 11 11 11 10 10 10 10 10 9 9 9 9 9 9 8 8 8 8 8 8 8 8 8 7 7 7 7 7 7 7 7 7 7
12 12 12 12 12 12 12 11 11 11 11 11 10 10 10 10 10 9 9 9 9 9 9 8 8 8 8 8 8 7 7 7 7 7 7 7 7 7 7 7 7 7 7
12 12 12 12 11 11 11 11 11 11 11 10 10 10 10 9 9 9 9 9 8 8 8 8 8 8 7 7 7 7 7 7 7 7 7 6 6 6 6 6 6 6 6
11 11 11 11 11 11 11 11 11 11 10 10 10 10 9 9 9 9 9 8 8 8 8 8 7 7 7 7 7 7 7 7 7 6 6 6 6 6 6 6 6 6 6
Wind_Speed
7 6 5 6 6 6 4 4 4 4 3 4 4 4 4 3 3 2 2 2 1 1 1 1 1 1 2 2 2 2 1 0 1 1 0 1 1 2 4 4 4 5 4
7 7 6 6 6 6 6 5 5 4 5 4 4 3 3 3 3 3 2 2 2 2 1 0 1 1 2 2 2 2 1 1 2 2 1 1 1 2 3 3 3 3 4
8 7 7 7 7 7 6 6 5 5 5 4 4 4 3 3 3 3 2 1 1 1 0 0 1 1 2 2 2 1 1 1 1 2 2 1 1 2 2 1 1 2 3
7 7 7 7 6 6 6 6 6 6 5 4 4 4 4 3 2 2 2 2 1 1 0 0 0 1 2 2 2 1 1 2 1 2 2 2 1 1 2 1 1 1 1
6 7 6 6 6 6 6 5 5 6 6 5 4 3 3 3 2 2 2 3 2 2 1 1 1 1 0 1 1 1 1 1 1 1 2 2 2 2 2 2 2 1 1
6 6 6 6 5 5 5 6 5 5 5 5 5 4 3 3 3 3 1 1 1 2 2 1 2 2 1 1 2 1 1 2 2 1 1 2 2 1 2 2 2 2 1
4 4 5 6 6 6 6 6 6 6 5 5 5 5 4 3 4 3 1 1 1 1 1 2 3 1 1 1 1 2 2 3 3 3 2 2 2 2 3 2 2 2 2
5 5 6 6 6 5 5 5 5 5 5 5 5 5 4 4 4 3 0 2 1 1 1 1 1 1 1 2 2 2 1 1 3 3 2 2 2 1 3 3 3 2 1
5 4 5 5 5 5 6 5 5 5 5 6 5 5 5 4 4 3 2 2 2 2 1 0 1 1 2 2 1 1 1 1 0 1 4 4 3 3 3 2 2 2 1
4 4 4 5 6 6 5 5 4 4 4 4 5 5 5 4 4 4 3 3 3 3 2 1 1 1 0 1 1 1 2 1 1 1 1 3 3 4 4 3 2 2 1
3 4 5 5 5 5 5 5 4 4 4 4 4 4 5 5 5 5 3 2 3 3 3 2 1 2 1 0 1 2 3 2 2 2 2 1 2 2 3 3 3 2 2
3 4 4 5 5 5 5 5 5 5 5 5 5 5 5 4 5 5 5 3 2 1 1 2 2 3 2 1 1 2 3 2 2 2 2 1 1 1 2 3 3 3 3
3 4 4 4 4 5 6 6 5 5 6 6 6 6 5 5 4 5 6 4 2 1 0 2 3 3 2 2 3 3 2 2 2 2 2 2 2 2 1 1 2 3 3
3 3 3 4 4 4 4 5 5 5 5 5 5 4 4 5 4 3 3 3 3 2 2 3 4 4 3 2 2 3 3 2 2 2 2 1 1 2 2 2 2 2 3
3 3 3 4 4 4 3 2 3 2 2 3 2 2 3 4 4 5 4 3 3 3 3 3 2 2 3 3 2 2 2 2 2 2 1 1 1 2 2 2 2 2 3
3 3 3 3 3 4 4 2 4 3 5 6 4 3 2 4 6 6 5 4 3 3 3 2 2 2 2 2 2 2 2 2 2 2 2 2 2 2 2 2 2 3 4
3 3 3 3 3 4 4 4 3 2 4 4 4 4 4 5 6 6 5 3 3 3 3 2 1 1 1 1 1 2 2 2 1 1 2 2 2 2 2 2 3 3 3
3 3 3 3 4 4 4 4 5 5 4 2 3 6 7 7 6 5 4 3 2 3 2 2 1 1 1 1 1 1 1 1 1 1 2 2 2 3 3 3 3 3 4
2 2 1 1 2 2 3 4 4 5 4 4 5 4 5 5 4 3 4 2 3 3 2 2 1 1 0 0 1 1 1 1 1 1 2 2 3 3 3 4 4 4 4
2 1 1 1 2 2 2 3 3 4 4 3 4 5 5 4 3 3 2 2 2 2 2 1 1 1 0 0 0 1 1 1 1 1 2 3 3 3 4 5 4 4 4
1 0 0 1 1 1 1 1 3 4 3 3 3 5 6 5 4 4 3 3 2 2 2 1 1 1 1 1 0 1 1 1 1 2 3 3 3 4 4 5 5 5 4
1 1 1 0 0 0 0 1 1 2 3 3 3 4 5 3 2 2 2 2 2 2 1 1 1 0 0 0 0 1 2 2 2 2 3 3 3 4 4 5 5 4 4
1 1 2 1 1 2 2 1 1 2 2 2 3 4 3 3 3 3 2 2 1 1 1 1 1 0 0 1 2 1 1 2 3 3 4 4 4 4 4 5 6 6 4
0 1 2 2 2 1 2 2 2 3 3 2 1 2 3 3 2 2 2 2 2 2 1 1 1 1 1 2 3 4 3 3 3 4 5 5 5 4 4 5 5 5 4
1 2 2 2 2 1 2 2 2 3 3 3 3 2 1 2 2 2 2 2 2 2 2 2 2 2 2 3 4 4 4 4 4 5 5 5 5 5 4 5 4 4 4
2 2 2 2 2 2 2 3 2 2 2 2 3 3 2 2 2 2 2 2 2 1 1 1 1 3 4 5 5 6 5 5 5 7 6 5 5 4 4 4 5 5 4
Wind_Direction
185 186 186 187 190 190 198 197 190 186 186 192 198 199 190 188 189 184 193 198 202 213 244 230 256 292 318 317 316 297 281 206 221 251 263 104 132 134 133 145 151 158 155
180 181 186 183 185 189 194 195 190 187 194 194 192 190 188 180 180 180 193 198 200 216 226 281 304 294 292 294 298 296 286 256 214 227 229 217 184 154 152 168 161 153 145
177 179 183 185 187 191 190 189 187 186 188 187 179 180 177 177 180 173 179 188 190 181 202 241 279 297 283 280 277 286 276 275 225 212 217 206 171 156 157 170 147 141 154
170 173 176 185 185 187 190 187 183 180 181 181 177 170 161 166 169 164 167 176 182 171 145 201 266 285 287 281 269 274 273 269 244 207 189 175 166 175 163 178 169 158 161
168 175 174 179 179 179 182 178 179 181 180 167 165 161 164 174 177 185 195 196 196 210 209 197 160 139 125 290 282 280 273 272 261 227 196 178 183 177 190 197 187 166 174
172 181 172 172 174 174 174 174 177 182 174 165 167 171 181 180 128 129 192 192 197 224 232 222 194 171 167 199 231 249 233 242 265 250 228 218 210 198 202 202 184 181 217
175 177 166 170 179 175 183 180 178 181 179 176 174 176 167 147 139 130 127 218 199 233 279 290 285 285 160 259 242 234 237 231 230 238 250 251 221 203 196 200 195 197 210
187 186 178 177 181 174 178 186 186 182 184 183 183 181 168 166 158 143 216 210 201 210 234 276 306 333 330 309 250 219 209 230 244 230 223 245 232 215 199 207 200 187 167
197 193 183 177 183 180 184 190 190 189 189 185 183 183 174 170 167 170 208 218 201 205 210 222 183 266 334 338 263 230 203 221 310 199 195 195 199 191 169 164 186 177 210
201 193 182 180 188 190 188 188 188 189 191 189 185 178 177 173 171 177 203 228 212 200 186 165 125 162 79 37 250 241 236 242 255 252 210 199 196 187 182 186 195 205 236
195 191 186 185 192 188 180 183 182 184 180 186 181 180 175 173 165 172 186 240 245 218 195 174 132 136 134 39 280 261 254 258 242 222 207 188 187 177 175 192 198 203 226
191 184 185 185 199 194 181 185 187 184 183 193 196 192 179 171 164 177 184 204 273 267 219 150 141 159 176 235 250 279 283 263 250 216 184 181 185 185 193 200 206 212 221
196 193 191 191 191 186 185 193 197 198 201 198 199 200 181 165 159 169 187 200 214 212 111 136 168 186 201 233 235 249 266 258 254 238 215 208 196 194 183 185 199 205 223
210 207 198 187 191 187 185 195 199 204 209 202 196 194 172 160 161 172 187 184 176 184 199 198 194 203 225 252 234 228 226 239 252 254 244 234 189 179 192 205 214 206 217
216 207 205 199 187 165 171 186 191 186 204 203 203 193 184 180 183 177 181 185 191 194 200 201 199 206 213 213 210 212 223 236 253 269 281 273 237 213 213 217 216 223 229
221 214 213 203 181 172 162 129 61 102 95 91 103 126 132 143 157 162 167 174 180 187 196 206 215 223 229 233 230 226 224 231 245 249 262 268 260 246 235 243 240 236 242
229 224 224 210 194 190 180 173 164 100 81 95 129 137 144 152 154 160 161 159 173 165 186 220 229 255 259 248 236 225 228 229 245 249 250 258 262 263 258 252 249 256 253
258 242 221 203 194 199 202 199 192 185 171 160 157 153 153 154 153 152 142 135 157 170 206 230 224 249 265 277 280 260 243 220 237 260 265 270 265 262 261 260 257 261 261
282 278 255 225 211 201 210 212 203 192 173 164 147 135 138 141 137 144 145 167 182 189 208 223 228 241 236 2 351 357 10 0 317 284 277 281 280 275 271 272 268 269 268
268 278 252 233 216 210 222 215 198 179 167 169 156 143 144 153 152 153 169 197 198 216 215 212 231 245 127 74 81 349 331 337 325 303 300 297 291 288 284 279 274 271 264
286 155 187 240 233 219 220 195 166 160 162 164 149 143 161 176 168 167 174 185 199 215 215 210 208 202 197 185 256 288 296 305 318 315 305 294 289 284 280 276 271 269 271
245 172 183 246 75 80 81 105 128 140 142 138 127 133 157 176 159 159 165 179 189 184 158 155 164 244 272 200 256 279 280 298 319 321 312 302 292 284 279 278 280 282 278
227 170 153 128 100 106 119 125 129 118 114 132 148 144 156 172 168 167 169 168 140 121 113 111 123 296 7 55 55 40 22 358 332 326 313 304 299 293 284 280 282 283 280
99 125 119 108 97 115 131 136 142 127 120 114 102 130 158 167 171 166 155 150 146 136 114 103 112 96 68 49 63 66 47 11 347 335 321 303 296 292 295 295 292 296 296
79 87 94 101 112 120 123 115 103 98 106 115 116 110 106 118 126 112 105 106 100 89 71 63 80 77 71 64 64 55 43 35 16 347 318 298 297 299 302 306 311 309 307
51 63 67 88 101 98 98 94 93 96 94 88 96 100 100 97 106 115 114 112 114 112 112 87 79 84 81 76 74 67 53 24 357 338 317 296 290 296 309 303 302 301 304
Height
1519 1520 1523 1524 1526 1528 1529 1530 1532 1533 1533 1534 1535 1535 1536 1536 1537 1537 1538 1538 1539 1539 1539 1539 1538 1538 1538 1537 1537 1537 1536 1536 1536 1535 1536 1536 1535 1535 1534 1534 1534 1533 1533
1516 1518 1520 1522 1523 1525 1526 1527 1529 1530 1531 1532 1532 1533 1534 1534 1535 1535 1536 1536 1537 1537 1537 1536 1536 1535 1535 1534 1534 1534 1534 1534 1534 1533 1533 1533 1533 1533 1532 1532 1531 1531 1531
1514 1515 1517 1518 1520 1522 1523 1524 1526 1527 1528 1529 1530 1530 1531 1532 1533 1533 1534 1534 1534 1534 1534 1534 1533 1532 1532 1532 1531 1531 1531 1531 1531 1530 1530 1530 1530 1530 1530 1530 1530 1529 1529
1511 1512 1514 1515 1517 1519 1521 1522 1523 1524 1525 1526 1528 1528 1529 1530 1531 1531 1531 1532 1531 1531 1531 1531 1530 1530 1529 1529 1528 1528 1528 1528 1528 1527 1527 1527 1527 1527 1527 1527 1527 1527 1527
1509 1510 1511 1513 1514 1516 1518 1520 1521 1522 1523 1525 1526 1526 1527 1528 1528 1528 1529 1529 1529 1528 1528 1528 1528 1527 1527 1526 1526 1525 1525 1525 1525 1524 1524 1524 1525 1524 1524 1524 1525 1525 1525
1507 1508 1509 1511 1512 1514 1515 1517 1518 1520 1521 1522 1523 1524 1524 1525 1525 1526 1526 1526 1526 1526 1526 1525 1525 1524 1524 1524 1523 1523 1522 1522 1522 1522 1521 1521 1521 1521 1521 1522 1522 1522 1522
1506 1507 1507 1508 1510 1511 1513 1513 1514 1516 1518 1519 1520 1521 1521 1522 1522 1523 1524 1524 1524 1523 1523 1523 1522 1522 1521 1521 1520 1520 1520 1519 1519 1519 1519 1518 1518 1518 1519 1519 1519 1520 1520
1503 1505 1505 1506 1507 1508 1510 1511 1512 1513 1515 1516 1516 1518 1518 1519 1520 1520 1521 1521 1521 1520 1520 1520 1519 1519 1518 1518 1517 1517 1516 1516 1516 1516 1516 1516 1516 1516 1516 1517 1517 1518 1518
1501 1502 1503 1504 1505 1505 1507 1508 1510 1511 1512 1512 1513 1514 1515 1515 1516 1517 1518 1517 1517 1517 1517 1517 1516 1516 1515 1515 1514 1514 1514 1514 1514 1514 1514 1513 1513 1513 1514 1514 1514 1515 1515
1498 1499 1500 1501 1502 1502 1504 1505 1506 1508 1509 1509 1509 1510 1511 1512 1513 1513 1514 1514 1514 1514 1514 1513 1513 1513 1513 1512 1511 1511 1511 1511 1511 1511 1512 1511 1511 1511 1511 1512 1512 1513 1513
1495 1496 1497 1498 1499 1500 1501 1502 1503 1504 1505 1506 1506 1507 1508 1509 1510 1510 1511 1511 1511 1511 1511 1510 1510 1510 1510 1510 1509 1509 1509 1509 1509 1509 1509 1509 1509 1509 1509 1510 1510 1511 1511
1491 1492 1493 1494 1496 1497 1498 1499 1500 1501 1502 1503 1504 1504 1505 1506 1507 1507 1508 1508 1509 1509 1508 1508 1508 1508 1508 1507 1507 1507 1507 1507 1507 1507 1507 1507 1507 1507 1507 1507 1508 1509 1509
1488 1489 1489 1490 1492 1494 1495 1496 1497 1498 1498 1499 1500 1501 1501 1502 1503 1504 1505 1505 1506 1506 1505 1505 1505 1505 1505 1505 1505 1505 1505 1505 1506 1506 1505 1505 1505 1505 1505 1506 1506 1506 1507
1485 1486 1487 1488 1489 1490 1491 1492 1493 1494 1495 1496 1497 1498 1498 1498 1499 1500 1501 1502 1502 1503 1503 1503 1503 1503 1503 1502 1502 1503 1503 1503 1503 1504 1504 1504 1504 1503 1503 1503 1504 1504 1504
1482 1483 1484 1485 1485 1486 1487 1488 1489 1490 1491 1493 1493 1494 1495 1495 1496 1497 1498 1498 1499 1500 1500 1500 1500 1500 1500 1500 1500 1500 1500 1500 1500 1501 1501 1501 1501 1501 1501 1501 1501 1501 1501
1479 1480 1481 1482 1482 1483 1484 1485 1485 1487 1487 1488 1489 1491 1491 1492 1493 1494 1495 1496 1497 1497 1497 1497 1497 1498 1498 1498 1498 1498 1497 1497 1497 1498 1498 1498 1498 1498 1498 1498 1498 1498 1497
1476 1476 1477 1478 1479 1480 1481 1482 1482 1483 1483 1483 1484 1486 1488 1489 1490 1491 1492 1493 1494 1495 1495 1495 1495 1495 1496 1496 1496 1496 1495 1495 1495 1495 1495 1495 1495 1495 1495 1494 1494 1494 1494
1473 1474 1475 1475 1476 1477 1478 1478 1479 1479 1479 1479 1480 1482 1484 1485 1486 1488 1488 1489 1490 1491 1492 1492 1492 1493 1493 1494 1494 1494 1493 1493 1493 1493 1493 1493 1493 1492 1492 1491 1491 1491 1490
1471 1472 1472 1473 1474 1474 1474 1474 1474 1474 1475 1476 1477 1478 1480 1482 1483 1484 1485 1486 1487 1487 1488 1489 1489 1490 1490 1490 1490 1491 1490 1490 1490 1490 1490 1490 1490 1489 1488 1488 1488 1487 1487
1469 1469 1470 1471 1471 1472 1471 1470 1469 1470 1471 1473 1474 1476 1478 1479 1480 1481 1482 1483 1484 1484 1485 1485 1486 1486 1487 1487 1487 1488 1487 1487 1487 1487 1486 1486 1486 1486 1485 1484 1484 1483 1483
1467 1467 1468 1469 1470 1470 1470 1469 1468 1469 1470 1472 1473 1474 1476 1477 1478 1479 1480 1480 1480 1481 1482 1482 1482 1483 1483 1484 1484 1484 1484 1484 1484 1483 1483 1482 1482 1481 1481 1481 1480 1479 1479
1465 1465 1466 1467 1468 1469 1469 1469 1469 1469 1470 1471 1472 1473 1475 1476 1477 1478 1478 1478 1479 1479 1479 1480 1480 1480 1481 1481 1481 1481 1481 1481 1480 1479 1479 1478 1478 1477 1477 1476 1476 1475 1475
1464 1464 1465 1466 1466 1467 1468 1469 1469 1469 1470 1472 1473 1473 1474 1475 1475 1476 1476 1476 1477 1477 1477 1477 1477 1478 1478 1478 1477 1477 1477 1477 1476 1476 1475 1474 1474 1473 1472 1472 1471 1471 1470
1463 1464 1464 1465 1465 1466 1467 1469 1469 1469 1471 1472 1472 1472 1473 1473 1474 1474 1475 1474 1474 1474 1475 1475 1475 1475 1475 1475 1474 1474 1474 1474 1473 1472 1472 1471 1470 1470 1469 1468 1467 1467 1466
1462 1463 1463 1464 1465 1466 1467 1468 1468 1469 1470 1471 1471 1471 1472 1472 1473 1473 1474 1474 1473 1473 1473 1473 1473 1473 1473 1472 1472 1472 1471 1471 1470 1469 1468 1467 1467 1466 1465 1464 1464 1463 1462
1462 1463 1464 1464 1465 1466 1467 1467 1468 1469 1470 1470 1471 1471 1471 1471 1472 1472 1472 1472 1472 1472 1472 1472 1471 1471 1471 1470 1470 1469 1469 1468 1467 1466 1465 1464 1463 1463 1462 1462 1461 1460 1459